Frankfort, MI

10:15 PM EDT on April 24, 2017 (GMT -0400)
Frankfort

Weather History for KFKS - October, 2012

Change the Weather History Date:

Sunday, October 21, 2012

  Actual Average (KMBL) Record (KMBL)
Temperature  
Mean Temperature 48 °F -  
Max Temperature 59 °F 57 °F 84 °F (1953)
Min Temperature 36 °F 40 °F 25 °F (1952)
Degree Days  
Heating Degree Days 18    
Moisture  
Dew Point 42 °F    
Average Humidity 81    
Maximum Humidity 92    
Minimum Humidity 56    
Precipitation  
Precipitation 0.00 in - - ()
Sea Level Pressure  
Sea Level Pressure 29.98 in    
Wind  
Wind Speed 1 mph (SW)    
Max Wind Speed 12 mph    
Max Gust Speed 16 mph    
Visibility 7 miles    
Events Fog    
Averages and records for this station are not official NWS values.
T = Trace of Precipitation, MM = Missing Value Source: NWS Daily Summary

Daily Weather History Graph

Daily Weather History Graph

Search for Another Location

Airport or City:

Trip Planner

Search our weather history database for the weather conditions in past years. The results will help you decide how hot, cold, wet, or windy it might be!

Date:

Astronomy

Oct. 21, 2012 Rise Set
Actual Time 8:08 AM EDT 6:49 PM EDT
Civil Twilight 7:38 AM EDT 7:19 PM EDT
Nautical Twilight 7:04 AM EDT 7:53 PM EDT
Astronomical Twilight 6:31 AM EDT 8:26 PM EDT
Moon 2:33 PM EDT (10/21) No Moon Set
Length of Visible Light 11h 40m
Length of Day
10h 40m
Waxing Crescent, 45% of the Moon is Illuminated
Oct 21
Waxing Crescent
Oct 21
First Quarter
Oct 29
Full
Nov 6
Last Quarter
Nov 13
New

Hourly Weather History & Observations

Time (EDT) Temp. Dew Point Humidity Pressure Visibility Wind Dir Wind Speed Gust Speed Precip Events Conditions
12:14 AM 45.1 °F 41.2 °F 86% 29.87 in 10.0 mi Calm Calm - N/A   Clear
12:34 AM 43.5 °F 40.3 °F 88% 29.88 in 5.0 mi Calm Calm - N/A   Clear
12:54 AM 44.4 °F 41.4 °F 89% 29.88 in 7.0 mi Calm Calm - N/A   Clear
1:14 AM 41.2 °F 38.3 °F 89% 29.89 in 4.0 mi Calm Calm - N/A   Clear
1:34 AM 41.0 °F 38.1 °F 89% 29.89 in 4.0 mi Calm Calm - N/A   Clear
1:54 AM 41.7 °F 39.0 °F 90% 29.89 in 4.0 mi Calm Calm - N/A   Clear
2:14 AM 40.3 °F 37.6 °F 90% 29.90 in 3.0 mi Calm Calm - N/A   Clear
2:34 AM 40.1 °F 37.4 °F 90% 29.90 in 10.0 mi Calm Calm - N/A   Clear
2:54 AM 42.8 °F 39.9 °F 90% 29.91 in 10.0 mi Calm Calm - N/A   Clear
3:15 AM 42.8 °F 39.7 °F 89% 29.92 in 10.0 mi Calm Calm - N/A   Clear
3:35 AM 40.5 °F 37.0 °F 88% 29.93 in 7.0 mi Calm Calm - N/A   Clear
3:55 AM 40.6 °F 37.9 °F 90% 29.93 in 7.0 mi Calm Calm - N/A   Clear
4:15 AM 42.6 °F 39.7 °F 90% 29.93 in 7.0 mi Calm Calm - N/A   Clear
4:35 AM 41.0 °F 38.3 °F 90% 29.94 in 5.0 mi Calm Calm - N/A   Clear
4:55 AM 40.5 °F 37.8 °F 90% 29.94 in 2.0 mi Calm Calm - N/A   Clear
5:15 AM 39.0 °F 36.5 °F 91% 29.95 in 0.8 mi Calm Calm - N/A   Mist
5:35 AM 39.2 °F 36.5 °F 90% 29.95 in 1.0 mi Calm Calm - N/A   Mist
5:55 AM 39.2 °F 36.5 °F 90% 29.95 in 0.5 mi Calm Calm - N/A Fog Fog
6:16 AM 37.9 °F 35.4 °F 91% 29.95 in 0.2 mi Calm Calm - N/A Fog Fog
6:31 AM 38.5 °F 36.0 °F 91% 29.95 in 0.2 mi Calm Calm - N/A Fog Fog
6:51 AM 38.1 °F 35.6 °F 91% 29.96 in 0.5 mi Calm Calm - N/A Fog Fog
7:11 AM 37.8 °F 35.4 °F 91% 29.97 in 0.5 mi Calm Calm - N/A Fog Fog
7:31 AM 37.4 °F 35.1 °F 91% 29.97 in 0.2 mi Calm Calm - N/A Fog Fog
7:51 AM 36.3 °F 34.0 °F 91% 29.98 in 0.2 mi Calm Calm - N/A Fog Fog
8:11 AM 38.1 °F 35.6 °F 91% 29.98 in 0.2 mi Calm Calm - N/A Fog Fog
8:31 AM 37.0 °F 34.7 °F 91% 29.99 in 0.2 mi Calm Calm - N/A Fog Fog
8:52 AM 37.8 °F 35.6 °F 92% 30.00 in 0.8 mi Calm Calm - N/A   Mist
9:12 AM 40.3 °F 37.8 °F 91% 30.00 in 3.0 mi Calm Calm - N/A   Clear
9:32 AM 43.0 °F 40.5 °F 91% 30.01 in 3.0 mi Calm Calm - N/A   Clear
9:52 AM 47.3 °F 44.6 °F 90% 30.01 in 5.0 mi Calm Calm - N/A   Clear
10:12 AM 50.9 °F 47.8 °F 89% 30.01 in 10.0 mi Calm Calm - N/A   Clear
10:32 AM 53.2 °F 48.2 °F 83% 30.02 in 10.0 mi Calm Calm - N/A   Clear
10:52 AM 54.5 °F 48.0 °F 79% 30.02 in 10.0 mi Calm Calm - N/A   Clear
11:12 AM 56.3 °F 47.1 °F 71% 30.02 in 10.0 mi SW 5.8 mph - N/A   Clear
11:32 AM 56.5 °F 45.9 °F 68% 30.02 in 10.0 mi SSW 5.8 mph - N/A   Clear
11:53 AM 57.6 °F 46.0 °F 65% 30.03 in 10.0 mi SW 4.6 mph - N/A   Clear
12:13 PM 58.3 °F 45.3 °F 62% 30.03 in 10.0 mi SW 8.1 mph - N/A   Clear
1:13 PM 59.9 °F 45.1 °F 58% 30.03 in 10.0 mi SW 8.1 mph - N/A   Clear
1:33 PM 58.5 °F 44.4 °F 60% 30.02 in 10.0 mi SSW 10.4 mph - N/A   Clear
1:53 PM 58.3 °F 44.8 °F 61% 30.03 in 10.0 mi SSW 10.4 mph - N/A   Clear
2:13 PM 58.6 °F 44.8 °F 60% 30.01 in 10.0 mi SSW 11.5 mph 16.1 mph N/A   Clear
2:33 PM 58.6 °F 43.9 °F 58% 30.01 in 10.0 mi SW 10.4 mph - N/A   Clear
2:54 PM 59.4 °F 43.5 °F 56% 30.00 in 10.0 mi SW 6.9 mph - N/A   Clear
3:34 PM 58.6 °F 45.0 °F 60% 30.01 in 10.0 mi SW 8.1 mph - N/A   Clear
3:54 PM 59.0 °F 45.9 °F 62% 30.01 in 10.0 mi WSW 10.4 mph - N/A   Clear
4:34 PM 58.1 °F 44.6 °F 61% 30.02 in 10.0 mi WSW 9.2 mph - N/A   Clear
4:54 PM 57.7 °F 45.3 °F 63% 30.01 in 10.0 mi WSW 10.4 mph - N/A   Clear
5:14 PM 57.9 °F 46.9 °F 67% 30.01 in 10.0 mi SSW 8.1 mph - N/A   Clear
5:34 PM 57.2 °F 46.8 °F 68% 30.01 in 10.0 mi SW 9.2 mph - N/A   Clear
6:35 PM 56.3 °F 46.6 °F 70% 30.01 in 10.0 mi South 4.6 mph - N/A   Clear
6:55 PM 55.6 °F 46.9 °F 73% 30.01 in 10.0 mi Calm Calm - N/A   Clear
7:15 PM 54.9 °F 47.3 °F 76% 30.02 in 10.0 mi Calm Calm - N/A   Clear
7:35 PM 54.7 °F 47.8 °F 78% 30.01 in 10.0 mi Calm Calm - N/A   Clear
7:55 PM 51.8 °F 46.8 °F 83% 30.01 in 10.0 mi Calm Calm - N/A   Clear
8:15 PM 50.7 °F 46.6 °F 86% 30.01 in 10.0 mi Calm Calm - N/A   Clear
8:36 PM 48.7 °F 44.6 °F 86% 30.01 in 10.0 mi Calm Calm - N/A   Clear
8:51 PM 50.4 °F 46.4 °F 86% 30.00 in 10.0 mi Calm Calm - N/A   Clear
9:11 PM 47.7 °F 43.2 °F 84% 30.00 in 7.0 mi Calm Calm - N/A   Clear
9:31 PM 47.5 °F 44.1 °F 88% 30.01 in 4.0 mi Calm Calm - N/A   Clear
9:51 PM 46.2 °F 42.3 °F 86% 30.01 in 7.0 mi Calm Calm - N/A   Clear
10:11 PM 47.3 °F 44.1 °F 88% 30.01 in 7.0 mi Calm Calm - N/A   Clear
10:31 PM 45.0 °F 41.7 °F 88% 30.01 in 4.0 mi Calm Calm - N/A   Clear
10:51 PM 44.6 °F 41.4 °F 88% 30.00 in - Calm Calm - N/A   Unknown
11:11 PM 45.0 °F 41.5 °F 88% 30.01 in 5.0 mi Calm Calm - N/A   Clear
11:32 PM 43.7 °F 40.5 °F 88% 30.01 in 5.0 mi Calm Calm - N/A   Clear
11:52 PM 45.5 °F 41.9 °F 87% 30.01 in 10.0 mi Calm Calm - N/A   Clear